Weather in Ljungby

Sweden     56°49′59″N   13°56′20″E
temp.,
°C
wind,
m/s
gust,
m/s
humid.,
%
clouds,
%
prec.,
mm/h
press.,
hPa
HPBL,
m
8 march, mon
mon801:00−3nnw286822 0.0 1020226
04:00−3nnw28710 0.0 1020290
07:00−3nnw28700 0.0 1021354
10:000n36460 0.0 1023852
13:00+3nnw34313 0.0 10231253
16:00+2nnw243052 0.0 10231302
19:00−2ssw014266 0.0 102321
22:00−3sw115581 0.0 102321
9 march, tue
tue901:00−2sw226090 0.0 102267
04:00−3sw226288 0.0 102079
07:00−3sw245983 0.0 1020141
10:000wsw2547100 0.0 1020455
13:00+3wsw3436100 0.0 10201164
16:00+3w354299 0.0 10191217
19:00−2w226671 0.0 102030
22:00−3w22730 0.0 102126
10 march, wed
wed1001:00−3w11774 0.0 102021
04:00−3wsw11770 0.0 102121
07:00−3se11774 0.0 102121
10:00+2sse22538 0.0 1021436
13:00+4s33414 0.0 10211235
16:00+3s4649100 0.0 1019994
19:00−1sse41064100 0.0 1018390
22:00−1sse41259100 0.0 1017547
11 march, thu
thu1101:000sse61462100 0.0 1014718
04:000sse61477100 0.1 1009841
07:00+1sse71596100 1.9 1005967
10:00+2sse81596100 3.7 1000937
13:00+2s81596100 7.6 996990
16:00+4s61395100 4.9 993789
19:00+4ssw5139396 8.3 991905
22:00+4sw51391100 0.9 992953
12 march, fri
fri1201:00+3sw51291100 1.0 992885
04:00+2wsw51197100 0.1 993707
07:00+2wsw41193100 0.8 994814
10:00+2sw7139578 0.3 9951004
13:00+2wsw7149688 1.2 9961008
16:00+3wsw71590100 0.9 9971313
19:00+2sw4138998 0.9 997883
22:00+1ssw599792 0.6 996511